Voltar ao catálogo

STARLINK-3601

AtivoComunicaçõesVLEO
NORAD 51804·PAYLOAD·🇺🇸 United States

Lançado Feb 25, 2022 de Vandenberg Space Force Base

Loading…

Próximas Passagens (próximas 24 horas)

TLE

AtualizadoSource: CelesTrak SupGP

Época: Sep 14, 2026, 20:32 UTC

1 51804C 22017AN  26257.85604167  .00003583  00000+0  10584-3 0  2575
2 51804  53.1576 189.7564 0001370 101.0111  40.1813 15.34398752    18

Acompanhe STARLINK-3601 em tempo real com AllMySat

Download on the App Store